Hourly Data Report for May 20, 2022

CLYDE RIVER A
NUNAVUT
Current Station Operator: NAVCAN

70°29'09.000" N
68°31'01.000" W
26.50 m
2400804
71090
YCY

Download Data

Hourly Data (May 2022)
Hourly Data Report for May 20, 2022
TIME
LST
Temp Definition
°C
Dew Point Definition
°C
Rel Hum Definition
%
Precip. Amount Definition
mm

Wind Dir Definition
10's deg

Wind Spd Definition
km/h
Visibility Definition
km
Stn Press Definition
kPa
Hmdx Definition


Wind Chill Definition


Weather Definition


00:00 -3.7 -4.7 93 0.0 33 26 16.1 101.69   -11 LegendNANA
01:00 -3.9 -4.9 93 0.0 33 24 16.1 101.72   -11 LegendNANA
02:00 -3.7 -4.8 92 0.0 32 18 16.1 101.70   -10 LegendNANA
03:00 -3.6 -4.9 91 0.0 33 17 16.1 101.72   -9 LegendNANA
04:00 -3.6 -4.7 92 0.0 32 15 16.1 101.73   -9 LegendNANA
05:00 -4.0 -5.1 92 0.0 35 18 16.1 101.74   -10 LegendNANA
06:00 -4.9 -6.9 86 0.0 35 15 16.1 101.77   -10 LegendNANA
07:00 -5.5 -7.5 86 0.0 33 22 16.1 101.80   -13 LegendNANA
08:00 -5.3 -7.4 85 0.0 33 21 16.1 101.80   -12 LegendNANA
09:00 -4.9 -7.6 82 0.0 34 21 16.1 101.79   -12 LegendNANA
10:00 -4.9 -7.0 86 0.0 35 18 16.1 101.76   -11 LegendNANA
11:00 -4.6 -6.8 85 0.0 34 17 16.1 101.75   -10 LegendNANA
12:00 -4.2 -6.1 87 0.0 33 18 16.1 101.72   -10 LegendNANA
13:00 -4.2 -6.4 85 0.0 33 21 16.1 101.70   -11 LegendNANA
14:00 -3.8 -6.1 84 0.0 36 11 16.1 101.67   -8 LegendNANA
15:00 -4.1 -7.1 80 0.0 34 17 16.1 101.64   -10 LegendNANA
16:00 -4.1 -6.6 83 0.0 34 18 16.1 101.61   -10 LegendNANA
17:00 -4.4 -7.1 82 0.0 36 13 16.1 101.59   -9 LegendNANA
18:00 -4.7 -7.5 81 0.0 36 11 16.1 101.55   -9 LegendNANA
19:00 -4.8 -7.3 83 0.0 36 11 16.1 101.53   -9 LegendNANA
20:00 -5.7 -7.3 89 0.0 3 11 16.1 101.51   -10 LegendNANA
21:00 -5.9 -7.6 88 0.0 2 8 16.1 101.49   -10 LegendNANA
22:00 -6.0 -7.6 89 0.0 1 9 16.1 101.43   -10 LegendNANA
23:00 -6.4 -7.9 89 0.0 3 8 16.1 101.36   -10 LegendNANA

Notes on Data Quality.

Legend

  • E = Estimated
  • M = Missing
  • NA = Not Available*
  • [empty] = Indicates an unobserved value
Date modified: